Location: Bologna
(44.4830°N, 11.3330°E)
Time: 13:22:42
(UTC+02:00)

ISS - Visible Passes

Search period start: 11 May 2021 00:00
Search period end: 21 May 2021 00:00
Orbit: 417 x 422 km, 51.6° (Epoch: 11 May)

Date Brightness Start Highest point End Pass type
(mag) Time Alt. Az. Time Alt. Az. Time Alt. Az.
11 May -1.5 02:04:21 26° N 02:04:21 26° N 02:06:42 10° NE visible
11 May -1.5 03:38:22 10° NW 03:41:14 25° N 03:44:06 10° ENE visible
11 May -3.2 05:15:07 10° NW 05:18:29 64° NNE 05:21:51 10° ESE visible
12 May -1.0 01:18:16 17° NE 01:18:16 17° NE 01:19:17 10° NE visible
12 May -1.3 02:51:12 12° NW 02:53:37 23° N 02:56:25 10° ENE visible
12 May -2.5 04:27:43 10° NW 04:31:00 44° NNE 04:34:16 10° E visible
13 May -1.4 02:05:02 20° NNW 02:06:01 23° N 02:08:48 10° NE visible
13 May -2.0 03:40:20 10° NW 03:43:28 34° NNE 03:46:36 10° E visible
13 May -3.6 05:17:05 10° WNW 05:20:24 52° SW 05:23:41 10° SE visible
14 May -1.4 01:18:38 24° N 01:18:38 24° N 01:21:15 10° NE visible
14 May -1.6 02:52:54 10° NW 02:55:54 28° NNE 02:58:54 10° ENE visible
14 May -3.8 04:29:37 10° WNW 04:33:01 84° SSW 04:36:23 10° SE visible
14 May -1.9 21:15:46 10° SSE 21:17:20 13° SE 21:18:55 10° ESE visible
14 May -3.9 22:50:19 10° WSW 22:53:41 87° SSE 22:55:36 24° ENE visible
15 May -1.7 00:27:50 10° WNW 00:30:48 28° NNW 00:33:46 10° NE visible
15 May -1.4 02:05:26 10° NW 02:08:18 25° N 02:11:10 10° ENE visible
15 May -3.3 03:42:12 10° NW 03:45:34 64° NNE 03:48:55 10° ESE visible
15 May -3.7 22:02:59 10° SW 22:06:17 54° SE 22:09:35 10° ENE visible
15 May -2.0 23:40:07 10° W 23:43:13 33° NNW 23:46:21 10° NE visible
16 May -1.3 01:17:54 10° NW 01:20:41 23° N 01:23:29 10° ENE visible
16 May -2.6 02:54:48 10° NW 02:58:04 45° NNE 03:01:20 10° E visible
16 May -3.0 04:31:45 10° WNW 04:34:48 32° SW 04:37:51 10° SSE visible
16 May -3.1 21:15:52 10° SSW 21:18:56 33° SE 21:22:00 10° ENE visible
16 May -2.5 22:52:27 10° W 22:55:41 43° NNW 22:58:56 10° NE visible
17 May -1.3 00:30:17 10° WNW 00:33:04 23° N 00:35:52 10° NE visible
17 May -2.1 02:07:24 10° NW 02:10:32 34° NNE 02:13:39 10° E visible
17 May -3.7 03:44:10 10° WNW 03:47:28 52° SW 03:50:45 10° SE visible
17 May -3.2 22:04:51 10° WSW 22:08:11 62° NNW 22:11:33 10° NE visible
17 May -1.4 23:42:36 10° WNW 23:45:27 25° N 23:48:19 10° NE visible
18 May -1.7 01:19:58 10° NW 01:22:58 28° NNE 01:22:58 28° NNE visible
18 May -3.8 21:17:22 10° WSW 21:20:44 88° SSE 21:24:07 10° ENE visible
18 May -1.6 22:54:54 10° WNW 22:57:51 28° NNW 23:00:50 10° NE visible
19 May -1.5 00:32:30 10° NW 00:35:22 25° N 00:36:34 20° NE visible
19 May -0.9 02:09:15 10° NW 02:09:29 12° NW 02:09:29 12° NW visible
19 May -1.9 22:07:11 10° W 22:10:17 33° NNW 22:13:24 10° NE visible
19 May -1.3 23:44:58 10° NW 23:47:45 23° N 23:50:24 11° ENE visible
20 May -1.5 01:21:51 10° NW 01:23:19 22° NW 01:23:19 22° NW visible
20 May -2.4 21:19:31 10° W 21:22:44 43° NNW 21:25:59 10° NE visible
20 May -1.3 22:57:20 10° WNW 23:00:07 23° N 23:02:55 10° NE visible
